Back to catalog

FENGYUN 1C DEB

AliveSSO
NORAD 29921·DEBRIS·🇨🇳 China

Launched May 10, 1999 from Taiyuan Satellite Launch Center

Loading…

Next Passes (next 24 hours)

TLE

FreshSource: Space-Track

Epoch: Sep 14, 2026, 11:43 UTC

1 29921U 99025HT  26257.48850512  .00000318  00000-0  21437-3 0  9995
2 29921  98.7898 260.7994 0045867  15.2231 136.9494 14.06941524  7532

Track FENGYUN 1C DEB in real time with AllMySat

Download on the App Store